SCP
0 0 0 0 -0 -0 0 0 0 0 -0 -0 -0 0 -0 0 -0 0 0 0 0 0 0 0 0 0 0 0 0 0 0 0 0 0 0 0 0 0 0 0 0 0 0 0 0 0 0 0 0 0 0 0 0 0
0 0 -0 0 -0 -0 -0 0 0 0 -0 -0 -0 0 0 0 0 0 0 0 0 0 0 0 0 0 0 0 0 0 0 0 1 0 0 0 0 0 0 0 0 0 0 0 0 0 0 0 0 0 0 0 0 0
0 0 0 0 -0 -0 -0 -0 -0 0 -0 -0 -0 0 0 0 0 0 0 0 0 -0 0 0 0 0 0 0 0 0 0 0 0 0 0 0 0 0 0 0 0 0 0 0 0 0 0 0 0 0 0 0 0 0
0 0 0 0 -0 -0 -0 0 -0 -0 -0 -0 0 0 0 0 0 0 0 0 0 0 -0 0 -0 0 0 0 0 0 0 0 0 0 0 0 0 0 0 0 0 0 0 0 0 0 0 0 0 0 0 0 0 0
0 0 0 0 0 -0 0 0 -0 -0 -0 -0 -0 0 0 0 0 0 0 0 0 0 0 0 -0 -0 -0 0 0 0 0 0 0 0 0 0 0 0 0 0 0 0 0 0 0 0 0 -0 0 0 0 0 -0 -0
0 0 0 0 0 0 0 0 0 -0 -0 -0 0 0 0 0 0 0 0 0 0 0 0 0 0 0 0 0 0 0 0 0 0 0 0 0 0 0 0 0 0 0 0 0 0 0 0 0 0 0 0 0 0 0
0 0 0 0 0 0 0 0 0 0 -0 -0 -0 0 0 0 0 0 0 0 0 0 0 0 0 0 0 0 0 0 0 0 0 0 0 0 0 0 0 0 0 0 0 0 0 0 0 0 0 0 0 0 0 0
0 0 0 0 0 0 0 0 0 0 0 0 0 0 0 0 0 0 0 0 0 0 0 0 0 0 0 0 0 0 0 0 0 0 0 -0 0 0 0 0 0 0 0 0 0 0 0 0 0 0 0 0 0 0
0 0 0 0 0 0 0 0 0 0 0 0 0 0 0 0 0 0 0 0 0 0 0 0 0 0 0 0 0 0 0 0 0 0 0 0 0 0 0 0 0 0 0 0 0 -0 0 0 0 0 0 0 0 0
0 0 0 0 0 0 0 0 0 0 0 0 0 0 0 -0 0 0 0 0 0 0 0 0 0 0 0 0 0 0 0 0 0 0 0 0 0 0 -0 -0 0 0 0 -0 -0 0 0 0 0 0 0 0 0 0
0 0 0 0 0 0 0 0 0 0 0 0 0 0 0 0 0 0 0 0 0 0 0 0 0 0 0 0 0 0 0 0 0 0 0 0 0 0 0 0 0 0 0 0 0 -0 -0 0 -0 -0 0 0 0 0
0 0 0 0 0 0 0 0 0 0 0 0 0 0 0 0 0 0 0 0 0 0 0 0 -0 0 0 0 0 0 0 0 0 0 0 0 0 -0 0 0 0 0 0 0 0 -0 0 0 -0 -0 -0 0 0 0
0 0 0 0 0 0 0 0 0 0 0 0 0 0 0 0 0 0 0 0 0 0 0 0 0 0 0 0 0 0 0 0 0 0 0 0 0 0 0 0 0 0 0 0 -0 -0 -0 -0 -0 -0 0 0 0 0
0 0 0 0 0 0 0 0 0 0 0 0 0 0 0 0 0 0 0 0 0 0 0 0 0 0 0 0 0 0 0 0 0 0 0 0 0 0 0 0 0 0 0 -0 -0 -0 -0 -0 0 0 0 0 0 0
0 0 0 0 0 0 0 0 0 0 0 0 0 0 0 0 0 0 -0 0 0 0 0 0 0 0 0 0 0 0 0 0 0 0 0 0 0 0 -0 0 0 0 -0 0 -0 -0 0 0 0 0 0 0 0 0
0 0 0 0 0 0 0 0 0 0 0 0 0 0 0 0 0 0 0 -0 0 0 0 0 0 0 0 0 0 0 0 0 0 0 0 0 0 0 0 0 0 -0 -0 0 0 0 0 0 0 0 0 0 0 0
0 0 0 0 0 0 0 0 0 0 0 0 0 0 0 0 0 0 0 0 0 0 0 0 0 0 0 0 0 0 0 0 0 0 0 0 0 -0 0 0 -0 -0 0 0 0 0 0 0 0 0 0 0 0 0
-0 -0 0 0 0 0 0 0 0 0 0 0 0 0 0 0 0 0 0 0 0 0 0 0 0 0 0 0 0 0 0 0 0 0 0 0 0 0 0 -0 -0 -0 0 0 0 0 0 0 0 0 0 0 0 0
-0 0 0 -0 0 0 0 0 0 0 0 0 0 0 0 0 0 0 0 0 0 0 0 0 0 0 0 0 0 0 0 0 0 0 0 0 0 0 0 0 0 0 0 0 0 0 0 0 0 0 0 0 0 0
0 0 -0 0 0 0 0 0 0 0 0 0 0 0 0 0 0 0 0 0 0 0 0 0 0 0 0 0 0 0 0 0 0 0 0 0 0 0 0 0 0 0 0 0 0 0 0 0 0 0 0 0 0 -0
0 0 0 0 0 0 0 0 0 0 0 0 0 0 0 0 0 0 0 0 0 0 0 0 0 0 0 0 0 0 0 0 0 0 0 0 0 0 0 0 0 0 0 0 0 0 0 0 0 0 0 0 0 0
0 0 0 -0 -0 -0 0 0 0 0 0 0 0 0 0 0 0 0 0 0 0 0 0 0 0 0 0 0 0 0 0 0 0 0 0 0 0 0 0 0 0 0 0 0 0 0 0 0 0 0 0 0 0 0
-0 -0 0 0 0 0 0 0 0 0 0 0 0 0 0 0 0 0 0 0 0 0 0 0 0 0 0 0 0 0 0 0 0 0 0 0 0 0 0 0 0 0 0 0 0 0 0 0 0 0 0 0 0 0
0 0 0 0 0 0 0 0 0 0 0 0 0 0 0 0 0 0 0 0 0 0 0 0 0 0 0 0 0 0 0 0 0 0 0 0 0 0 0 0 0 0 0 0 0 0 0 0 0 0 0 0 0 0
0 0 0 0 0 0 0 0 0 0 0 0 0 0 0 0 0 0 0 0 0 0 0 0 0 0 0 0 0 0 0 0 0 0 0 0 0 0 0 0 0 0 0 0 0 0 0 0 0 0 0 0 0 0
0 0 0 0 0 0 0 0 0 0 0 0 0 0 0 0 0 0 0 0 0 0 0 0 0 0 0 0 0 0 0 0 0 0 0 0 0 0 0 0 0 0 0 0 0 0 0 0 0 0 0 0 0 0
0 0 0 0 0 0 0 0 0 0 0 0 0 0 0 0 0 0 0 0 0 0 0 0 0 0 0 0 0 0 0 0 0 0 0 0 0 0 0 0 0 0 0 0 0 0 0 0 0 0 0 0 0 0
0 0 0 0 0 0 0 0 0 0 0 0 0 0 0 0 0 0 0 0 0 0 0 0 0 0 0 0 0 0 0 0 0 0 0 0 0 0 0 0 0 0 0 0 0 0 0 0 0 0 0 0 0 0
0 0 0 0 0 0 0 0 0 0 0 0 0 0 0 0 0 0 0 0 0 0 0 0 0 0 0 0 0 0 0 0 0 0 0 0 0 -0 -0 0 0 0 0 0 0 0 0 0 0 0 0 0 0 0
0 0 0 0 0 0 0 0 0 0 0 0 0 0 0 0 0 0 0 0 0 0 0 0 0 0 0 0 0 0 0 0 0 0 0 0 0 0 0 0 0 0 0 0 0 0 0 0 0 0 0 0 0 0
0 0 0 0 0 0 0 0 0 0 0 0 0 0 0 0 0 0 0 0 0 0 0 0 0 0 0 0 0 0 0 0 0 0 0 0 0 0 0 0 0 0 0 0 0 0 0 0 0 0 0 0 0 0
0 0 0 0 0 0 0 0 0 0 0 0 0 0 0 0 0 0 0 0 0 0 0 0 0 0 0 0 0 0 0 0 0 0 0 0 0 0 0 0 0 0 0 0 0 0 0 0 0 0 0 0 0 0
0 0 0 0 0 0 0 0 0 0 0 0 0 0 0 0 0 0 0 0 0 0 0 0 0 0 0 0 0 0 0 0 0 0 0 0 0 0 0 0 0 0 0 0 0 0 0 0 0 0 0 0 0 0
Wind_Speed_500mb
36 42 46 49 45 38 29 11 17 30 31 32 44 60 43 29 16 14 14 18 13 14 17 36 25 21 16 20 6 20 6 11 9 8 6 4 4 4 10 4 10 9 9 4 6 8 9 5 1 4 12 22 25 25
31 37 42 41 37 29 27 13 20 29 32 31 45 48 39 30 17 29 13 23 1 3 10 18 30 28 21 22 15 14 5 6 9 7 4 5 7 6 9 5 6 7 6 9 4 6 3 16 29 23 18 24 21 22
27 31 38 36 27 19 22 5 17 27 30 33 59 33 26 21 30 10 21 37 20 3 8 12 24 34 24 22 25 8 7 9 10 10 6 4 11 5 6 4 10 4 7 8 4 4 8 18 27 34 31 30 23 18
23 26 31 34 25 11 18 16 14 21 24 41 60 27 18 25 36 3 18 28 22 2 6 10 5 21 16 15 17 12 5 10 16 9 7 5 7 6 7 9 8 7 9 10 8 9 21 16 24 28 25 21 16 11
20 22 25 28 24 7 4 10 13 14 26 51 55 22 18 30 22 10 17 20 23 10 6 9 5 12 7 5 9 10 9 9 18 11 6 2 8 9 3 6 4 9 12 9 10 43 14 43 31 21 15 8 16 22
17 19 20 25 22 4 8 11 18 19 27 69 46 21 13 23 27 10 4 7 9 16 6 4 9 9 10 12 10 7 6 16 14 11 6 11 5 8 7 4 2 12 19 20 16 57 38 43 34 25 37 26 27 25
15 16 17 19 21 8 18 11 18 27 32 66 50 27 11 15 14 6 3 17 13 10 7 10 15 2 7 13 6 14 33 20 16 5 10 15 4 9 6 7 18 23 22 29 59 62 45 43 49 35 33 32 26 24
13 14 15 15 18 9 20 20 19 31 35 46 49 29 10 14 22 7 12 20 15 4 4 3 8 7 5 4 1 10 12 17 6 9 8 16 3 9 5 5 33 38 52 65 63 54 52 42 36 35 34 31 31 27
18 12 13 10 11 7 17 27 28 29 34 41 44 26 17 17 12 12 15 18 2 2 3 2 4 6 4 3 10 4 11 9 17 10 12 7 4 4 17 47 55 72 55 68 53 50 48 40 39 30 29 35 33 27
24 19 11 8 5 2 13 29 34 33 38 38 35 16 11 15 33 17 9 6 4 6 9 7 6 5 1 5 16 17 6 6 7 10 6 7 3 15 51 59 66 53 65 66 70 60 51 46 37 34 35 33 26 25
24 22 15 10 7 1 8 36 35 35 40 41 16 9 18 30 11 2 4 3 7 5 15 14 22 5 4 7 2 8 7 2 4 9 8 3 1 6 49 51 56 57 67 61 52 49 47 47 50 40 34 27 24 22
18 22 20 15 14 7 13 20 38 54 32 24 21 25 27 9 7 6 7 7 8 9 12 23 18 16 10 14 10 14 8 2 6 3 7 5 8 51 52 60 51 55 58 55 45 42 37 43 36 31 28 26 20 13
19 21 24 20 21 18 20 26 42 49 40 40 12 11 11 8 7 12 12 8 7 9 17 21 9 10 10 13 3 2 4 6 2 4 6 8 29 67 54 57 58 52 54 41 41 47 45 38 30 27 26 16 13 15
24 22 27 25 26 25 24 31 45 36 17 9 10 10 10 10 12 12 11 10 24 20 25 30 16 7 3 6 6 4 7 4 0 6 9 5 53 74 63 67 62 57 53 53 57 52 48 41 31 22 14 12 12 15
24 24 27 25 27 29 33 28 30 37 10 7 10 10 14 29 24 32 39 34 42 18 27 19 11 5 5 5 4 4 1 7 8 9 7 40 68 78 78 71 62 64 65 64 54 46 37 29 24 25 20 17 16 18
28 25 27 27 24 30 38 24 26 31 9 6 12 9 15 16 21 33 33 36 36 40 35 14 6 9 9 3 6 9 6 10 7 6 44 71 70 73 77 75 79 76 70 57 42 33 26 21 21 24 20 17 17 12
27 18 20 25 28 38 32 41 26 11 12 11 16 22 28 30 29 23 28 36 27 29 7 11 6 5 4 4 7 7 7 7 18 46 67 80 84 85 83 86 83 71 60 49 38 33 28 22 29 30 17 11 17 21
27 19 15 24 33 41 42 22 11 12 14 23 13 12 16 24 12 6 42 49 35 22 23 6 7 3 6 7 5 7 15 34 45 62 66 76 78 81 90 84 75 67 58 49 44 40 32 29 31 20 18 21 27 22
17 19 31 41 54 37 15 15 10 9 20 17 16 14 15 16 6 15 31 32 28 26 37 19 3 6 8 9 11 34 46 54 54 55 61 73 82 88 85 80 73 65 57 52 45 35 32 31 27 19 18 22 16 22
14 26 41 47 41 11 11 10 12 10 7 6 5 9 13 6 13 18 33 28 27 20 12 6 5 25 7 21 48 54 52 51 50 55 60 72 81 84 82 76 67 57 49 39 37 37 35 29 21 20 18 22 18 21
32 32 35 37 32 8 6 9 13 10 5 1 6 4 7 14 15 16 28 30 18 8 7 14 11 33 28 31 42 52 54 45 44 43 64 69 75 78 74 65 59 51 48 46 37 34 31 27 25 22 22 16 12 15
23 28 19 32 14 7 12 14 7 4 6 5 12 6 15 3 11 8 11 12 7 12 19 17 29 42 40 33 45 44 48 39 36 37 57 69 74 72 68 64 56 50 39 30 30 36 29 24 23 22 19 17 14 15
21 16 7 15 16 13 9 13 13 14 6 9 9 7 1 4 7 7 8 9 8 23 37 29 28 31 34 29 29 32 31 27 30 37 57 66 71 68 61 57 44 40 35 31 32 29 28 24 26 25 21 22 17 17
7 7 7 6 16 8 9 12 14 15 10 10 9 8 6 7 9 9 6 6 17 21 24 25 25 30 26 26 26 18 23 27 26 31 50 63 65 62 53 50 47 40 36 33 40 32 30 30 26 26 21 24 23 18
6 9 9 9 8 6 8 6 7 6 5 8 11 9 6 11 3 4 6 12 23 24 24 24 17 11 22 16 10 18 23 24 30 32 37 54 59 55 54 48 39 41 31 48 49 37 34 33 34 30 30 16 21 20
4 7 7 7 6 3 5 6 8 7 7 7 5 8 15 6 5 5 6 18 25 28 22 27 19 21 19 19 17 12 19 18 32 38 38 35 39 38 40 43 46 41 43 50 37 37 34 35 36 38 33 34 30 26
5 6 6 7 7 8 7 11 14 9 7 7 3 5 5 6 6 4 16 19 16 24 21 18 10 14 19 15 13 15 15 18 22 26 22 39 40 34 34 35 39 43 38 41 39 31 28 33 40 31 25 27 28 27
7 10 3 12 13 19 6 6 7 5 4 6 7 4 6 5 5 9 23 17 26 22 19 15 11 14 27 26 18 15 26 24 26 28 28 26 18 31 41 45 41 39 40 36 27 24 28 25 27 34 29 27 27 27
5 4 8 10 10 11 13 7 8 10 12 7 5 5 4 8 16 23 23 21 23 25 21 19 14 15 27 25 20 23 23 33 31 40 43 34 30 38 42 34 32 28 29 28 27 29 31 31 37 37 35 32 31 32
5 7 4 6 4 2 7 11 12 14 13 17 14 18 17 13 5 4 12 16 19 18 16 10 12 24 26 26 23 29 30 19 19 28 33 32 36 36 35 35 34 33 28 26 28 27 24 25 21 23 25 28 27 30
11 13 4 5 4 8 14 5 10 6 11 14 8 12 13 10 10 5 1 16 17 11 9 14 20 24 26 19 22 21 34 38 30 21 23 23 24 30 31 29 27 27 26 24 23 26 23 23 23 23 19 23 25 21
15 13 9 4 4 4 7 4 2 5 7 9 7 9 12 8 7 9 10 16 23 16 19 17 22 19 11 10 8 10 21 41 26 25 24 24 25 26 25 22 23 23 22 22 24 22 21 19 20 25 26 28 28 31
13 15 15 7 4 7 10 10 8 3 6 4 4 4 18 14 9 10 17 19 16 16 16 10 10 11 13 12 10 17 25 27 30 24 18 19 22 23 22 24 23 24 24 26 25 21 21 21 23 27 29 29 28 25
Wind_Direction_500mb
338 341 348 345 350 356 2 14 172 168 180 180 184 190 187 192 200 142 65 23 354 345 2 22 25 4 354 22 25 328 43 12 36 70 126 206 126 134 82 51 107 133 122 142 96 92 250 21 235 146 131 100 100 77
341 344 351 349 359 18 24 67 148 165 184 184 176 167 185 192 183 204 5 25 162 94 340 1 20 15 8 22 350 13 36 25 38 82 42 83 46 52 133 106 3 66 143 141 87 193 86 76 110 108 128 120 109 95
341 347 352 354 5 22 32 63 162 169 178 187 165 149 177 196 183 232 17 33 132 292 322 273 6 11 27 19 15 11 27 20 65 57 134 134 89 121 108 117 108 104 132 94 93 267 128 116 115 108 106 118 126 108
336 347 355 356 2 24 50 91 133 181 182 180 167 157 187 186 201 164 38 37 32 8 164 234 246 356 351 3 4 5 46 36 34 53 75 113 117 173 170 151 117 171 118 112 95 111 135 163 138 129 122 113 123 136
328 341 353 358 360 28 99 96 170 174 180 174 167 141 163 182 182 224 48 48 20 23 329 302 258 211 254 294 334 346 30 65 31 42 18 244 152 102 47 78 93 159 155 159 205 174 169 180 172 161 131 151 137 123
318 332 347 359 1 15 159 100 147 172 166 166 168 160 145 171 202 267 103 39 336 345 319 359 335 292 290 227 273 331 77 73 49 21 335 271 172 114 102 129 223 173 167 153 149 168 151 147 149 157 140 132 119 104
308 321 337 356 1 11 174 148 140 158 169 175 181 189 172 172 187 237 337 334 356 341 331 333 329 48 294 251 177 124 75 62 61 4 323 309 249 97 92 152 171 158 154 151 143 141 137 148 144 145 142 139 126 115
298 309 323 347 1 31 169 166 154 154 157 178 190 193 183 191 188 222 335 338 336 334 331 47 283 325 224 256 335 160 129 64 213 261 232 228 133 89 92 181 146 148 141 146 145 147 141 142 142 144 148 154 142 137
290 296 302 330 354 41 172 169 167 170 171 174 182 189 206 219 234 275 299 331 296 277 321 277 219 247 181 52 24 307 191 140 193 198 227 127 321 147 184 161 153 151 147 147 145 145 144 141 148 160 180 168 146 141
275 280 279 285 306 48 173 175 171 175 180 183 187 187 198 217 229 290 235 295 233 216 226 241 234 250 118 71 20 350 272 177 149 236 177 85 258 296 174 167 161 156 154 151 145 152 150 152 157 153 144 146 145 146
252 252 252 232 227 245 166 179 180 182 180 166 159 149 147 143 131 96 267 238 211 255 209 220 212 221 246 121 83 345 282 230 125 261 121 101 322 208 168 174 161 161 162 166 167 163 162 158 161 148 144 145 150 158
246 228 226 208 197 181 170 166 189 186 166 152 129 133 140 134 177 201 217 251 189 224 203 182 196 214 216 120 192 196 224 39 192 182 95 153 229 176 175 172 169 165 166 164 166 170 167 154 158 157 155 158 166 189
230 218 210 202 196 180 174 184 192 184 146 134 124 146 151 183 187 203 191 228 214 215 186 157 167 216 178 153 145 54 46 240 39 65 192 214 167 177 180 179 177 165 163 157 148 153 153 147 155 163 155 165 168 163
217 209 203 200 197 184 187 198 197 182 139 125 164 171 205 200 222 208 191 187 211 196 182 176 131 170 238 107 162 134 244 98 340 185 215 200 159 173 173 175 171 172 172 157 150 148 146 145 141 140 150 162 163 165
202 199 200 200 199 193 193 218 199 204 149 196 203 215 218 224 227 221 224 215 213 195 181 125 93 88 322 171 150 82 105 202 214 213 199 160 166 171 171 174 167 161 158 154 156 152 147 148 154 149 151 151 164 161
185 194 206 198 200 195 194 202 199 191 206 253 234 264 271 200 249 252 215 223 225 227 181 138 131 113 244 153 129 186 203 207 227 206 148 160 151 163 162 159 154 157 161 159 161 161 157 152 155 154 153 162 162 163
181 194 198 197 192 193 191 187 171 193 206 235 235 249 271 273 259 222 207 220 218 176 129 93 77 162 325 273 196 190 199 208 174 153 155 162 158 157 159 158 157 155 156 158 163 160 152 149 150 149 143 130 161 154
202 206 198 184 175 172 172 178 165 212 237 240 245 257 310 295 278 146 209 227 216 178 131 117 55 128 224 227 203 209 144 146 155 154 155 158 160 161 158 155 156 157 159 163 164 158 154 157 160 166 166 152 151 159
225 218 181 170 181 167 161 190 217 247 238 254 256 280 287 289 280 19 122 133 154 138 110 125 203 230 231 235 172 146 149 150 142 150 157 162 163 160 158 160 161 163 163 162 160 160 158 162 178 179 167 163 160 166
157 164 170 172 177 178 189 211 213 249 252 229 240 301 289 244 14 105 134 132 119 112 112 100 282 265 171 167 175 157 157 150 147 142 155 161 161 163 163 163 161 161 157 153 150 150 158 170 180 174 160 160 158 161
151 159 174 188 196 266 249 231 221 239 268 245 319 307 329 105 320 149 149 137 109 100 107 206 164 115 117 137 161 158 160 165 166 169 166 165 167 166 167 165 161 160 156 154 157 173 185 181 171 177 166 169 199 186
178 164 169 190 212 236 254 233 239 232 219 190 140 122 62 292 281 97 155 95 73 106 149 142 111 98 99 128 154 162 164 166 176 178 176 172 167 169 169 166 164 166 166 175 173 183 190 186 181 175 180 194 195 198
157 161 184 213 213 214 247 197 219 185 160 134 79 62 105 227 275 356 80 76 88 118 152 140 117 115 108 116 148 164 173 178 170 183 184 182 181 179 174 172 175 173 172 179 184 185 191 185 186 183 179 186 194 209
167 239 244 234 205 233 226 203 175 153 152 146 149 142 170 238 24 26 88 110 128 132 150 147 135 134 129 128 129 147 170 180 182 183 193 187 183 179 182 186 186 185 191 188 192 193 193 197 205 196 190 201 199 193
242 237 224 261 253 206 230 112 170 127 131 142 130 145 166 95 258 175 143 147 158 154 153 155 157 157 144 148 141 155 159 176 185 184 189 196 192 195 190 189 197 204 212 197 189 192 188 191 192 194 196 205 218 202
215 224 181 285 289 321 8 58 52 66 55 82 71 86 140 142 102 108 188 170 173 181 190 193 177 178 181 195 184 169 170 179 198 184 181 182 194 203 190 196 199 200 197 200 205 205 207 209 208 212 216 221 219 233
287 230 242 296 313 5 39 64 72 59 48 63 42 61 67 84 73 4 128 165 179 157 162 175 213 201 192 185 184 200 183 193 184 188 186 194 190 198 208 211 203 191 192 199 215 215 217 219 219 214 222 238 245 241
295 344 59 360 29 27 46 46 51 59 50 80 95 93 88 69 185 111 105 114 156 159 173 153 162 196 219 203 198 210 177 159 143 154 162 166 188 215 197 185 193 210 216 207 215 224 230 226 225 229 231 234 230 235
294 42 63 49 23 22 23 41 11 25 21 46 63 55 98 88 128 143 143 150 156 163 157 162 167 188 208 187 177 172 170 172 178 164 170 171 165 183 195 201 192 196 205 202 206 216 230 236 242 240 245 247 247 246
240 194 106 113 87 10 6 27 5 360 38 42 89 104 101 103 111 228 222 193 178 176 176 196 192 181 188 185 182 161 166 168 190 207 186 174 172 165 169 175 187 196 203 215 219 225 232 231 236 233 235 244 257 263
168 172 170 119 165 234 246 328 353 30 29 358 158 151 154 149 155 153 353 193 186 157 156 177 189 186 189 179 187 180 191 192 186 203 190 177 171 175 180 183 192 196 204 213 223 224 230 243 241 232 246 261 256 262
160 166 140 158 193 153 144 170 310 345 353 2 46 141 162 156 162 203 213 205 186 161 156 153 163 158 158 159 167 153 175 171 173 175 193 186 198 191 200 204 201 213 237 237 214 219 239 235 249 248 253 270 269 255
198 186 176 150 142 156 154 139 145 168 213 228 255 215 192 187 180 190 194 194 190 177 167 167 178 174 167 170 169 179 180 195 193 192 202 199 206 211 216 227 237 239 225 226 218 230 235 242 252 258 266 264 254 255
Wind_Speed_850mb
36 42 46 49 45 38 29 11 17 30 31 32 44 60 43 29 16 14 14 18 13 14 17 36 25 21 16 20 6 20 6 11 9 8 6 4 4 4 10 4 10 9 9 4 6 8 9 5 1 4 12 22 25 25
31 37 42 41 37 29 27 13 20 29 32 31 45 48 39 30 17 29 13 23 1 3 10 18 30 28 21 22 15 14 5 6 9 7 4 5 7 6 9 5 6 7 6 9 4 6 3 16 29 23 18 24 21 22
27 31 38 36 27 19 22 5 17 27 30 33 59 33 26 21 30 10 21 37 20 3 8 12 24 34 24 22 25 8 7 9 10 10 6 4 11 5 6 4 10 4 7 8 4 4 8 18 27 34 31 30 23 18
23 26 31 34 25 11 18 16 14 21 24 41 60 27 18 25 36 3 18 28 22 2 6 10 5 21 16 15 17 12 5 10 16 9 7 5 7 6 7 9 8 7 9 10 8 9 21 16 24 28 25 21 16 11
20 22 25 28 24 7 4 10 13 14 26 51 55 22 18 30 22 10 17 20 23 10 6 9 5 12 7 5 9 10 9 9 18 11 6 2 8 9 3 6 4 9 12 9 10 43 14 43 31 21 15 8 16 22
17 19 20 25 22 4 8 11 18 19 27 69 46 21 13 23 27 10 4 7 9 16 6 4 9 9 10 12 10 7 6 16 14 11 6 11 5 8 7 4 2 12 19 20 16 57 38 43 34 25 37 26 27 25
15 16 17 19 21 8 18 11 18 27 32 66 50 27 11 15 14 6 3 17 13 10 7 10 15 2 7 13 6 14 33 20 16 5 10 15 4 9 6 7 18 23 22 29 59 62 45 43 49 35 33 32 26 24
13 14 15 15 18 9 20 20 19 31 35 46 49 29 10 14 22 7 12 20 15 4 4 3 8 7 5 4 1 10 12 17 6 9 8 16 3 9 5 5 33 38 52 65 63 54 52 42 36 35 34 31 31 27
18 12 13 10 11 7 17 27 28 29 34 41 44 26 17 17 12 12 15 18 2 2 3 2 4 6 4 3 10 4 11 9 17 10 12 7 4 4 17 47 55 72 55 68 53 50 48 40 39 30 29 35 33 27
24 19 11 8 5 2 13 29 34 33 38 38 35 16 11 15 33 17 9 6 4 6 9 7 6 5 1 5 16 17 6 6 7 10 6 7 3 15 51 59 66 53 65 66 70 60 51 46 37 34 35 33 26 25
24 22 15 10 7 1 8 36 35 35 40 41 16 9 18 30 11 2 4 3 7 5 15 14 22 5 4 7 2 8 7 2 4 9 8 3 1 6 49 51 56 57 67 61 52 49 47 47 50 40 34 27 24 22
18 22 20 15 14 7 13 20 38 54 32 24 21 25 27 9 7 6 7 7 8 9 12 23 18 16 10 14 10 14 8 2 6 3 7 5 8 51 52 60 51 55 58 55 45 42 37 43 36 31 28 26 20 13
19 21 24 20 21 18 20 26 42 49 40 40 12 11 11 8 7 12 12 8 7 9 17 21 9 10 10 13 3 2 4 6 2 4 6 8 29 67 54 57 58 52 54 41 41 47 45 38 30 27 26 16 13 15
24 22 27 25 26 25 24 31 45 36 17 9 10 10 10 10 12 12 11 10 24 20 25 30 16 7 3 6 6 4 7 4 0 6 9 5 53 74 63 67 62 57 53 53 57 52 48 41 31 22 14 12 12 15
24 24 27 25 27 29 33 28 30 37 10 7 10 10 14 29 24 32 39 34 42 18 27 19 11 5 5 5 4 4 1 7 8 9 7 40 68 78 78 71 62 64 65 64 54 46 37 29 24 25 20 17 16 18
28 25 27 27 24 30 38 24 26 31 9 6 12 9 15 16 21 33 33 36 36 40 35 14 6 9 9 3 6 9 6 10 7 6 44 71 70 73 77 75 79 76 70 57 42 33 26 21 21 24 20 17 17 12
27 18 20 25 28 38 32 41 26 11 12 11 16 22 28 30 29 23 28 36 27 29 7 11 6 5 4 4 7 7 7 7 18 46 67 80 84 85 83 86 83 71 60 49 38 33 28 22 29 30 17 11 17 21
27 19 15 24 33 41 42 22 11 12 14 23 13 12 16 24 12 6 42 49 35 22 23 6 7 3 6 7 5 7 15 34 45 62 66 76 78 81 90 84 75 67 58 49 44 40 32 29 31 20 18 21 27 22
17 19 31 41 54 37 15 15 10 9 20 17 16 14 15 16 6 15 31 32 28 26 37 19 3 6 8 9 11 34 46 54 54 55 61 73 82 88 85 80 73 65 57 52 45 35 32 31 27 19 18 22 16 22
14 26 41 47 41 11 11 10 12 10 7 6 5 9 13 6 13 18 33 28 27 20 12 6 5 25 7 21 48 54 52 51 50 55 60 72 81 84 82 76 67 57 49 39 37 37 35 29 21 20 18 22 18 21
32 32 35 37 32 8 6 9 13 10 5 1 6 4 7 14 15 16 28 30 18 8 7 14 11 33 28 31 42 52 54 45 44 43 64 69 75 78 74 65 59 51 48 46 37 34 31 27 25 22 22 16 12 15
23 28 19 32 14 7 12 14 7 4 6 5 12 6 15 3 11 8 11 12 7 12 19 17 29 42 40 33 45 44 48 39 36 37 57 69 74 72 68 64 56 50 39 30 30 36 29 24 23 22 19 17 14 15
21 16 7 15 16 13 9 13 13 14 6 9 9 7 1 4 7 7 8 9 8 23 37 29 28 31 34 29 29 32 31 27 30 37 57 66 71 68 61 57 44 40 35 31 32 29 28 24 26 25 21 22 17 17
7 7 7 6 16 8 9 12 14 15 10 10 9 8 6 7 9 9 6 6 17 21 24 25 25 30 26 26 26 18 23 27 26 31 50 63 65 62 53 50 47 40 36 33 40 32 30 30 26 26 21 24 23 18
6 9 9 9 8 6 8 6 7 6 5 8 11 9 6 11 3 4 6 12 23 24 24 24 17 11 22 16 10 18 23 24 30 32 37 54 59 55 54 48 39 41 31 48 49 37 34 33 34 30 30 16 21 20
4 7 7 7 6 3 5 6 8 7 7 7 5 8 15 6 5 5 6 18 25 28 22 27 19 21 19 19 17 12 19 18 32 38 38 35 39 38 40 43 46 41 43 50 37 37 34 35 36 38 33 34 30 26
5 6 6 7 7 8 7 11 14 9 7 7 3 5 5 6 6 4 16 19 16 24 21 18 10 14 19 15 13 15 15 18 22 26 22 39 40 34 34 35 39 43 38 41 39 31 28 33 40 31 25 27 28 27
7 10 3 12 13 19 6 6 7 5 4 6 7 4 6 5 5 9 23 17 26 22 19 15 11 14 27 26 18 15 26 24 26 28 28 26 18 31 41 45 41 39 40 36 27 24 28 25 27 34 29 27 27 27
5 4 8 10 10 11 13 7 8 10 12 7 5 5 4 8 16 23 23 21 23 25 21 19 14 15 27 25 20 23 23 33 31 40 43 34 30 38 42 34 32 28 29 28 27 29 31 31 37 37 35 32 31 32
5 7 4 6 4 2 7 11 12 14 13 17 14 18 17 13 5 4 12 16 19 18 16 10 12 24 26 26 23 29 30 19 19 28 33 32 36 36 35 35 34 33 28 26 28 27 24 25 21 23 25 28 27 30
11 13 4 5 4 8 14 5 10 6 11 14 8 12 13 10 10 5 1 16 17 11 9 14 20 24 26 19 22 21 34 38 30 21 23 23 24 30 31 29 27 27 26 24 23 26 23 23 23 23 19 23 25 21
15 13 9 4 4 4 7 4 2 5 7 9 7 9 12 8 7 9 10 16 23 16 19 17 22 19 11 10 8 10 21 41 26 25 24 24 25 26 25 22 23 23 22 22 24 22 21 19 20 25 26 28 28 31
13 15 15 7 4 7 10 10 8 3 6 4 4 4 18 14 9 10 17 19 16 16 16 10 10 11 13 12 10 17 25 27 30 24 18 19 22 23 22 24 23 24 24 26 25 21 21 21 23 27 29 29 28 25
Wind_Direction_850mb
338 341 348 345 350 356 2 14 172 168 180 180 184 190 187 192 200 142 65 23 354 345 2 22 25 4 354 22 25 328 43 12 36 70 126 206 126 134 82 51 107 133 122 142 96 92 250 21 235 146 131 100 100 77
341 344 351 349 359 18 24 67 148 165 184 184 176 167 185 192 183 204 5 25 162 94 340 1 20 15 8 22 350 13 36 25 38 82 42 83 46 52 133 106 3 66 143 141 87 193 86 76 110 108 128 120 109 95
341 347 352 354 5 22 32 63 162 169 178 187 165 149 177 196 183 232 17 33 132 292 322 273 6 11 27 19 15 11 27 20 65 57 134 134 89 121 108 117 108 104 132 94 93 267 128 116 115 108 106 118 126 108
336 347 355 356 2 24 50 91 133 181 182 180 167 157 187 186 201 164 38 37 32 8 164 234 246 356 351 3 4 5 46 36 34 53 75 113 117 173 170 151 117 171 118 112 95 111 135 163 138 129 122 113 123 136
328 341 353 358 360 28 99 96 170 174 180 174 167 141 163 182 182 224 48 48 20 23 329 302 258 211 254 294 334 346 30 65 31 42 18 244 152 102 47 78 93 159 155 159 205 174 169 180 172 161 131 151 137 123
318 332 347 359 1 15 159 100 147 172 166 166 168 160 145 171 202 267 103 39 336 345 319 359 335 292 290 227 273 331 77 73 49 21 335 271 172 114 102 129 223 173 167 153 149 168 151 147 149 157 140 132 119 104
308 321 337 356 1 11 174 148 140 158 169 175 181 189 172 172 187 237 337 334 356 341 331 333 329 48 294 251 177 124 75 62 61 4 323 309 249 97 92 152 171 158 154 151 143 141 137 148 144 145 142 139 126 115
298 309 323 347 1 31 169 166 154 154 157 178 190 193 183 191 188 222 335 338 336 334 331 47 283 325 224 256 335 160 129 64 213 261 232 228 133 89 92 181 146 148 141 146 145 147 141 142 142 144 148 154 142 137
290 296 302 330 354 41 172 169 167 170 171 174 182 189 206 219 234 275 299 331 296 277 321 277 219 247 181 52 24 307 191 140 193 198 227 127 321 147 184 161 153 151 147 147 145 145 144 141 148 160 180 168 146 141
275 280 279 285 306 48 173 175 171 175 180 183 187 187 198 217 229 290 235 295 233 216 226 241 234 250 118 71 20 350 272 177 149 236 177 85 258 296 174 167 161 156 154 151 145 152 150 152 157 153 144 146 145 146
252 252 252 232 227 245 166 179 180 182 180 166 159 149 147 143 131 96 267 238 211 255 209 220 212 221 246 121 83 345 282 230 125 261 121 101 322 208 168 174 161 161 162 166 167 163 162 158 161 148 144 145 150 158
246 228 226 208 197 181 170 166 189 186 166 152 129 133 140 134 177 201 217 251 189 224 203 182 196 214 216 120 192 196 224 39 192 182 95 153 229 176 175 172 169 165 166 164 166 170 167 154 158 157 155 158 166 189
230 218 210 202 196 180 174 184 192 184 146 134 124 146 151 183 187 203 191 228 214 215 186 157 167 216 178 153 145 54 46 240 39 65 192 214 167 177 180 179 177 165 163 157 148 153 153 147 155 163 155 165 168 163
217 209 203 200 197 184 187 198 197 182 139 125 164 171 205 200 222 208 191 187 211 196 182 176 131 170 238 107 162 134 244 98 340 185 215 200 159 173 173 175 171 172 172 157 150 148 146 145 141 140 150 162 163 165
202 199 200 200 199 193 193 218 199 204 149 196 203 215 218 224 227 221 224 215 213 195 181 125 93 88 322 171 150 82 105 202 214 213 199 160 166 171 171 174 167 161 158 154 156 152 147 148 154 149 151 151 164 161
185 194 206 198 200 195 194 202 199 191 206 253 234 264 271 200 249 252 215 223 225 227 181 138 131 113 244 153 129 186 203 207 227 206 148 160 151 163 162 159 154 157 161 159 161 161 157 152 155 154 153 162 162 163
181 194 198 197 192 193 191 187 171 193 206 235 235 249 271 273 259 222 207 220 218 176 129 93 77 162 325 273 196 190 199 208 174 153 155 162 158 157 159 158 157 155 156 158 163 160 152 149 150 149 143 130 161 154
202 206 198 184 175 172 172 178 165 212 237 240 245 257 310 295 278 146 209 227 216 178 131 117 55 128 224 227 203 209 144 146 155 154 155 158 160 161 158 155 156 157 159 163 164 158 154 157 160 166 166 152 151 159
225 218 181 170 181 167 161 190 217 247 238 254 256 280 287 289 280 19 122 133 154 138 110 125 203 230 231 235 172 146 149 150 142 150 157 162 163 160 158 160 161 163 163 162 160 160 158 162 178 179 167 163 160 166
157 164 170 172 177 178 189 211 213 249 252 229 240 301 289 244 14 105 134 132 119 112 112 100 282 265 171 167 175 157 157 150 147 142 155 161 161 163 163 163 161 161 157 153 150 150 158 170 180 174 160 160 158 161
151 159 174 188 196 266 249 231 221 239 268 245 319 307 329 105 320 149 149 137 109 100 107 206 164 115 117 137 161 158 160 165 166 169 166 165 167 166 167 165 161 160 156 154 157 173 185 181 171 177 166 169 199 186
178 164 169 190 212 236 254 233 239 232 219 190 140 122 62 292 281 97 155 95 73 106 149 142 111 98 99 128 154 162 164 166 176 178 176 172 167 169 169 166 164 166 166 175 173 183 190 186 181 175 180 194 195 198
157 161 184 213 213 214 247 197 219 185 160 134 79 62 105 227 275 356 80 76 88 118 152 140 117 115 108 116 148 164 173 178 170 183 184 182 181 179 174 172 175 173 172 179 184 185 191 185 186 183 179 186 194 209
167 239 244 234 205 233 226 203 175 153 152 146 149 142 170 238 24 26 88 110 128 132 150 147 135 134 129 128 129 147 170 180 182 183 193 187 183 179 182 186 186 185 191 188 192 193 193 197 205 196 190 201 199 193
242 237 224 261 253 206 230 112 170 127 131 142 130 145 166 95 258 175 143 147 158 154 153 155 157 157 144 148 141 155 159 176 185 184 189 196 192 195 190 189 197 204 212 197 189 192 188 191 192 194 196 205 218 202
215 224 181 285 289 321 8 58 52 66 55 82 71 86 140 142 102 108 188 170 173 181 190 193 177 178 181 195 184 169 170 179 198 184 181 182 194 203 190 196 199 200 197 200 205 205 207 209 208 212 216 221 219 233
287 230 242 296 313 5 39 64 72 59 48 63 42 61 67 84 73 4 128 165 179 157 162 175 213 201 192 185 184 200 183 193 184 188 186 194 190 198 208 211 203 191 192 199 215 215 217 219 219 214 222 238 245 241
295 344 59 360 29 27 46 46 51 59 50 80 95 93 88 69 185 111 105 114 156 159 173 153 162 196 219 203 198 210 177 159 143 154 162 166 188 215 197 185 193 210 216 207 215 224 230 226 225 229 231 234 230 235
294 42 63 49 23 22 23 41 11 25 21 46 63 55 98 88 128 143 143 150 156 163 157 162 167 188 208 187 177 172 170 172 178 164 170 171 165 183 195 201 192 196 205 202 206 216 230 236 242 240 245 247 247 246
240 194 106 113 87 10 6 27 5 360 38 42 89 104 101 103 111 228 222 193 178 176 176 196 192 181 188 185 182 161 166 168 190 207 186 174 172 165 169 175 187 196 203 215 219 225 232 231 236 233 235 244 257 263
168 172 170 119 165 234 246 328 353 30 29 358 158 151 154 149 155 153 353 193 186 157 156 177 189 186 189 179 187 180 191 192 186 203 190 177 171 175 180 183 192 196 204 213 223 224 230 243 241 232 246 261 256 262
160 166 140 158 193 153 144 170 310 345 353 2 46 141 162 156 162 203 213 205 186 161 156 153 163 158 158 159 167 153 175 171 173 175 193 186 198 191 200 204 201 213 237 237 214 219 239 235 249 248 253 270 269 255
198 186 176 150 142 156 154 139 145 168 213 228 255 215 192 187 180 190 194 194 190 177 167 167 178 174 167 170 169 179 180 195 193 192 202 199 206 211 216 227 237 239 225 226 218 230 235 242 252 258 266 264 254 255